Location: Gloden
(48.4833°N, 15.3167°E)
Time: 22:36:15
(UTC+00:00)

Meteor 1-20 Rocket - Pass Details

Date: 15 December 2019
Orbit: 819 x 892 km, 81.2° (Epoch: 18 January)

Event Time Altitude Azimuth Distance (km) Brightness Sun altitude
Exits shadow 04:03:09 54° 229° (SW) 1,076 4.4 -25.4°
Maximum altitude 04:04:20 68° 284° (WNW) 960 4.2 -25.2°
Drops below altitude 10° 04:10:09 10° 7° (N) 2,554 6.7 -24.2°
Sets 04:12:37 0° 10° (N) 3,489 7.4 -23.8°
